Location: Bassano
(45.7667°N, 11.7333°E)
Time: 18:14:46
(UTC+00:00)

Cosmos 2237 - Pass Details

Date: 07 June 2020
Orbit: 844 x 858 km, 70.8° (Epoch: 01 July)

Event Time Altitude Azimuth Distance (km) Brightness Sun altitude
Exits shadow 01:54:30 15° 199° (SSW) 2,156 5.7 -12.2°
Maximum altitude 01:59:21 80° 114° (ESE) 873 4.3 -11.6°
Drops below altitude 10° 02:05:06 10° 29° (NNE) 2,498 8.1 -11.0°
Sets 02:07:34 0° 28° (NNE) 3,440 9.2 -10.7°
